Cairns, Australia

7:24 PM AEST on April 27, 2017 (GMT +1000)
Cairns International

Weather History for YBCS - July, 2014

Change the Weather History Date:

Saturday, July 19, 2014

  Actual Average Record
Temperature  
Mean Temperature 63 °F -  
Max Temperature 77 °F 79 °F 82 °F (2010)
Min Temperature 49 °F 63 °F 49 °F (2014)
Degree Days  
Heating Degree Days 2    
Growing Degree Days 13 (Base 50)    
Moisture  
Dew Point 51 °F    
Average Humidity 65    
Maximum Humidity 94    
Minimum Humidity 31    
Precipitation  
Precipitation 0.00 in 0.03 in - ()
Sea Level Pressure  
Sea Level Pressure 30.06 in    
Wind  
Wind Speed 7 mph ()    
Max Wind Speed 22 mph    
Max Gust Speed -    
Visibility 6.9 miles    
Events      
Averages and records for this station are not official NWS values.
T = Trace of Precipitation, MM = Missing Value Source: Averaged Metar Reports

Daily Weather History Graph

Daily Weather History Graph

Search for Another Location

Airport or City:

Trip Planner

Search our weather history database for the weather conditions in past years. The results will help you decide how hot, cold, wet, or windy it might be!

Date:

Astronomy

Jul. 19, 2014 Rise Set
Actual Time 6:46 AM AEST 6:00 PM AEST
Civil Twilight 6:23 AM AEST 6:23 PM AEST
Nautical Twilight 5:56 AM AEST 6:50 PM AEST
Astronomical Twilight 5:30 AM AEST 7:16 PM AEST
Moon No Moon Rise 11:54 AM AEST (7/19)
Length of Visible Light 12h 00m
Length of Day
11h 14m
Waning Gibbous, 50% of the Moon is Illuminated
Jul 19
Waning Gibbous
Jul 19
Last Quarter
Jul 27
New
Aug 4
First Quarter
Aug 11
Full

Hourly Weather History & Observations

Time (AEST) Temp. Dew Point Humidity Pressure Visibility Wind Dir Wind Speed Gust Speed Precip Events Conditions
12:00 AM 55 °F 50 °F 79% 30.08 in - Calm Calm - -  
12:00 AM 55.4 °F 50.0 °F 82% 30.06 in - Calm Calm - N/A   Clear
12:30 AM 53.6 °F 51.8 °F 94% 30.06 in - Calm Calm - N/A   Clear
1:00 AM 55 °F 50 °F 77% 30.08 in - SSW 2.3 mph - -  
1:00 AM 55.4 °F 50.0 °F 82% 30.06 in - SSW 2.3 mph - N/A   Clear
1:30 AM 57.2 °F 50.0 °F 77% 30.06 in - SSW 4.6 mph - N/A   Clear
2:00 AM 53.6 °F 50.0 °F 88% 30.06 in - West 4.6 mph - N/A   Clear
2:30 AM 53.6 °F 51.8 °F 94% 30.04 in - West 4.6 mph - N/A   Clear
3:00 AM 53 °F 50 °F 87% 30.05 in - West 5.8 mph - -  
3:00 AM 51.8 °F 50.0 °F 94% 30.04 in - West 5.8 mph - N/A   Clear
3:30 AM 51.8 °F 50.0 °F 94% 30.04 in 6.2 mi West 3.5 mph - N/A   Unknown
4:00 AM 52 °F 50 °F 89% 30.04 in - West 3.5 mph - -  
4:00 AM 51.8 °F 50.0 °F 94% 30.04 in - West 3.5 mph - N/A   Clear
4:30 AM 51.8 °F 50.0 °F 94% 30.04 in - Calm Calm - N/A   Clear
5:00 AM 53.6 °F 50.0 °F 88% 30.04 in - West 4.6 mph - N/A   Clear
5:30 AM 51.8 °F 50.0 °F 94% 30.04 in - WNW 2.3 mph - N/A   Clear
6:00 AM 51 °F 49 °F 92% 30.05 in - WNW 1.2 mph - -  
6:00 AM 51.8 °F 50.0 °F 94% 30.04 in 6.2 mi WNW 1.2 mph - N/A   Unknown
6:30 AM 51.8 °F 50.0 °F 94% 30.04 in 6.2 mi Calm Calm - N/A   Partly Cloudy
7:00 AM 51 °F 49 °F 92% 30.07 in - Calm Calm - -  
7:00 AM 51.8 °F 50.0 °F 94% 30.06 in 6.2 mi Calm Calm - N/A   Partly Cloudy
7:30 AM 53.6 °F 51.8 °F 94% 30.06 in 6.2 mi Calm Calm - N/A   Partly Cloudy
8:00 AM 62.6 °F 48.2 °F 59% 30.06 in 6.2 mi SE 2.3 mph - N/A   Partly Cloudy
8:30 AM 68.0 °F 46.4 °F 46% 30.09 in 6.2 mi South 12.7 mph - N/A   Partly Cloudy
9:00 AM 68 °F 44 °F 31% 30.11 in 19 mi South 15.0 mph - -   Partly Cloudy
9:00 AM 68.0 °F 44.6 °F 43% 30.09 in 6.2 mi South 15.0 mph - N/A   Mostly Cloudy
9:30 AM 68.0 °F 44.6 °F 43% 30.09 in 6.2 mi South 13.8 mph - N/A   Mostly Cloudy
10:00 AM 71 °F 49 °F 34% 30.12 in - South 12.7 mph - -  
10:00 AM 71.6 °F 48.2 °F 43% 30.09 in 6.2 mi South 12.7 mph - N/A   Scattered Clouds
10:30 AM 73.4 °F 50.0 °F 44% 30.09 in 6.2 mi South 10.4 mph - N/A   Scattered Clouds
11:00 AM 75.2 °F 51.8 °F 44% 30.09 in 6.2 mi SSE 13.8 mph - N/A   Scattered Clouds
11:30 AM 77.0 °F 51.8 °F 41% 30.06 in 6.2 mi SE 19.6 mph - N/A   Scattered Clouds
12:00 PM 76 °F 52 °F 32% 30.07 in - SE 18.4 mph - -  
12:00 PM 77.0 °F 51.8 °F 41% 30.06 in 6.2 mi SE 18.4 mph - N/A   Scattered Clouds
12:30 PM 77.0 °F 51.8 °F 41% 30.04 in 6.2 mi SE 17.3 mph - N/A   Scattered Clouds
1:00 PM 75 °F 52 °F 33% 30.05 in - SE 18.4 mph - -  
1:00 PM 75.2 °F 51.8 °F 44% 30.04 in 6.2 mi SE 18.4 mph - N/A   Scattered Clouds
1:30 PM 77.0 °F 53.6 °F 44% 30.04 in 6.2 mi SE 15.0 mph - N/A   Scattered Clouds
2:00 PM 77.0 °F 53.6 °F 44% 30.01 in 6.2 mi ESE 19.6 mph - N/A   Scattered Clouds
2:30 PM 75.2 °F 53.6 °F 47% 30.01 in 6.2 mi SE 21.9 mph - N/A   Scattered Clouds
3:00 PM 76 °F 55 °F 38% 30.01 in 19 mi SE 20.7 mph - -   Partly Cloudy
3:00 PM 77.0 °F 55.4 °F 47% 30.01 in 6.2 mi SE 20.7 mph - N/A   Scattered Clouds
3:30 PM 75.2 °F 53.6 °F 47% 30.01 in 6.2 mi SE 20.7 mph - N/A   Scattered Clouds
4:00 PM 74 °F 53 °F 37% 30.02 in - SE 20.7 mph - -  
4:00 PM 73.4 °F 53.6 °F 50% 30.01 in 6.2 mi SE 20.7 mph - N/A   Scattered Clouds
4:30 PM 73.4 °F 53.6 °F 50% 30.01 in 6.2 mi SE 20.7 mph - N/A   Scattered Clouds
5:00 PM 71.6 °F 55.4 °F 57% 30.01 in 6.2 mi SE 17.3 mph - N/A   Scattered Clouds
5:30 PM 69.8 °F 53.6 °F 56% 30.04 in 6.2 mi SE 16.1 mph - N/A   Scattered Clouds
6:00 PM 69 °F 55 °F 51% 30.05 in - SSE 12.7 mph - -  
6:00 PM 68.0 °F 55.4 °F 64% 30.04 in 6.2 mi SSE 12.7 mph - N/A   Scattered Clouds
6:30 PM 68.0 °F 53.6 °F 60% 30.06 in 6.2 mi South 10.4 mph - N/A   Scattered Clouds
7:00 PM 67 °F 54 °F 55% 30.08 in - South 10.4 mph - -  
7:00 PM 66.2 °F 55.4 °F 68% 30.06 in 6.2 mi South 10.4 mph - N/A   Scattered Clouds
7:30 PM 66.2 °F 53.6 °F 64% 30.06 in 6.2 mi South 8.1 mph - N/A   Scattered Clouds
8:00 PM 66.2 °F 53.6 °F 64% 30.09 in 6.2 mi SSW 8.1 mph - N/A   Scattered Clouds
8:30 PM 66.2 °F 53.6 °F 64% 30.09 in 6.2 mi SSE 11.5 mph - N/A   Scattered Clouds
9:00 PM 66 °F 52 °F 50% 30.11 in - South 9.2 mph - -  
9:00 PM 66.2 °F 51.8 °F 60% 30.09 in 6.2 mi South 9.2 mph - N/A   Scattered Clouds
9:30 PM 66.2 °F 51.8 °F 60% 30.09 in 6.2 mi South 9.2 mph - N/A   Partly Cloudy
10:00 PM 62 °F 54 °F 67% 30.12 in - ESE 8.1 mph - -  
10:00 PM 62.6 °F 53.6 °F 72% 30.09 in 6.2 mi ESE 8.1 mph - N/A   Partly Cloudy
10:30 PM 60.8 °F 53.6 °F 77% 30.09 in 6.2 mi SSE 5.8 mph - N/A   Partly Cloudy
11:00 PM 60.8 °F 53.6 °F 77% 30.09 in 6.2 mi ESE 11.5 mph - N/A   Partly Cloudy
11:30 PM 60.8 °F 53.6 °F 77% 30.09 in - SE 10.4 mph - N/A   Clear